IRIDIUM 33 DEB, 34146

Orbit data source: Space-Track

IRIDIUM 33 DEB, 34146 is space debris in LEO originally from a launch on Sun, 14 Sep 1997 UTC launched from the Tyuratam Missile And Space Complex (TTMTR). The debris from Iridium 33, an American commercial communications satellite, has been tracked extensively since its accidental collision with the defunct Russian satellite Cosmos 2251 in 2009. This event, occurring at high speed in low Earth orbit (LEO), generated thousands of pieces of space debris, significantly increasing the risk of further collisions. The Iridium 33 debris cloud has impacted space traffic management and orbital debris mitigation strategies, making it a subject of ongoing study in space situational awareness.

Loading next visibility...
Identifier
34146, 1997-051DZ
Orbit
LEO
Country
Flag of USUS
Related business
Manufacturer
Unknown
Mission
Spacecraft
Bus & Motor
Unknown
Mass
Unknown
Launch date (UTC)
1997-09-14 (29 years ago)
Launch vehicle
Unknown
Launch site
Tyuratam Missile And Space Complex (TTMTR)
Object type
Payload
Rocket body
Debris
Shape & HBR
Unknown shape, 0.1 m
Radar Cross Section
Medium (>0.1 m² and <1 m²)

Expand to show TLE details & history
Last TLE update: 9 hours ago

TLE from 9 hours ago
0 IRIDIUM 33 DEB
1 34146U 97051DZ  26263.18606221  .00002073  00000-0  52189-3 0  9995
2 34146  86.2820 225.2715 0027245  12.6559   1.7571 14.50545044921856
Epoch: 2026-09-20T04:27Z
TLE epoch observation values (Epoch: 2026-09-20T04:27:55.774Z)
Latitude
14.36088°
Longitude
160.15342°
Altitude
706.87 km
Speed
7.514 km/s
True Right ascension
15h 04m 52s
True Declination
14° 16' 40"
Sunlit
Object was in daylight at epoch
Visualization orbit readout
Latitude
Unknown
Longitude
Unknown
Altitude
Unknown
Speed
Unknown
Apparent Right ascension
Unknown
Apparent Declination
Unknown
Sunlit
N/A
Visualization observer readout
Local Sidereal Time
05:56:33
Azimuth
Unknown
Elevation
Unknown
Doppler factor
Unknown
Orbital elements
Apogee altitude
740.154 km
Perigee altitude
701.472 km
Semi-major axis
7,098.95 km
Eccentricity
0.00272
Inclination
86.282°
RAAN
225.2715°
Arg. of periapsis
12.6559°
True anomaly
1.76671°
Mean anomaly
1.7571°
Eccentric anomaly
1.7619°
Mean motion
3.62871 °/min
Orbital period
99.21 mins
BSTAR
0.00052189

Documentation

Showing up to 5 results
|